Regional Weather Roundup
Issued by NWS

Home | Current Version | Previous Version | Text Only | Print | Product List | Glossary Off
Versions: 1 2 3 4 5 6 7 8 9 10 11 12 13 14 15 16 17 18 19 20 21 22 23 24 25 26 27 28 29 30 31 32 33 34 35 36 37 38 39 40 41 42 43 44 45 46 47 48 49 50

000
ASUS43 KBIS 011959
RWRND

NORTH DAKOTA REGIONAL WEATHER ROUNDUP
NATIONAL WEATHER SERVICE BISMARCK ND
300 PM CDT MON SEP 01 2014

NOTE: "FAIR" INDICATES FEW OR NO CLOUDS BELOW 12,000 FEET WITH NO
SIGNIFICANT WEATHER AND/OR OBSTRUCTIONS TO VISIBILITY.


NDZ001>003-009>011-017-012100-
NORTHWEST NORTH DAKOTA

CITY           SKY/WX    TMP DP  RH WIND       PRES   REMARKS
WILLISTON      PTSUNNY   72  40  31 W7G17     29.83F
MINOT          MOSUNNY   71  42  35 W14G24    29.79S
$$

NDZ018>021-031>035-040>046-012100-
SOUTHWEST NORTH DAKOTA

CITY           SKY/WX    TMP DP  RH WIND       PRES   REMARKS
BISMARCK       MOSUNNY   74  50  42 N14       29.82S
GARRISON         N/A     70  45  40 NW10G21   29.81F
HETTINGER ARPT MOSUNNY   71  45  39 W12       29.89S
$$

NDZ004>008-012>016-024-026-027-054-012100-
NORTHEAST NORTH DAKOTA

CITY           SKY/WX    TMP DP  RH WIND       PRES   REMARKS
GRAND FORKS    PTSUNNY   72  56  57 SW7       29.70R
DEVILS LAKE    PTSUNNY   66  54  63 NW12      29.74R
$$

NDZ022-023-025-028>030-036>039-047>053-012100-
SOUTHEAST NORTH DAKOTA

CITY           SKY/WX    TMP DP  RH WIND       PRES   REMARKS
FARGO          SUNNY     76  55  48 W10       29.72F
$$




USA.gov is the U.S. government's official web portal to all federal, state and local government web resources and services.